Location: Fort Worth, Tx
(32.7431°N, 97.3695°W)
Time: 09:04:01
(UTC-04:00)

Explorer 11/Cluster Stage 4 - Visible Passes

Search period start: 18 May 2025 00:00
Search period end: 28 May 2025 00:00
Orbit: 463 x 1190 km, 28.8° (Epoch: 17 May)

Date Brightness Start Highest point End Pass type
(mag) Time Alt. Az. Time Alt. Az. Time Alt. Az.
18 May 8.7 00:19:56 10° WSW 00:20:27 12° WSW 00:20:27 12° WSW visible
18 May 6.5 22:10:37 10° W 22:14:26 42° S 22:18:02 15° ESE visible
18 May 8.3 23:58:08 10° WSW 23:59:24 16° WSW 23:59:24 16° WSW visible
19 May 6.6 21:48:44 10° WSW 21:52:22 40° S 21:56:36 10° ESE visible
19 May 8.0 23:36:21 10° WSW 23:38:20 18° SW 23:38:20 18° SW visible
20 May 7.8 23:14:35 10° WSW 23:17:16 18° SSW 23:17:16 18° SSW visible
21 May 7.8 22:52:51 10° WSW 22:55:24 16° SSW 22:56:14 15° S visible
22 May 7.9 22:31:07 10° SW 22:33:17 14° SSW 22:35:14 11° S visible
23 May 8.0 22:09:26 10° SW 22:11:08 13° SSW 22:12:56 10° S visible
